Weather Roundup
Issued by NWS

Home | Current Version | Previous Version | Graphics & Text | Print | Product List | Glossary On
Versions: 1 2 3 4 5 6 7 8 9 10 11 12 13 14 15 16 17 18 19 20 21 22 23 24 25 26 27 28 29 30 31 32 33 34 35 36 37 38 39 40 41 42 43 44 45 46 47 48 49 50
000
NZUS93 KARX 211310
HRRWXR

CURRENT HOURLY OBSERVATIONS ACROSS
MUCH OF THE UPPER MISSISSIPPI VALLEY
NATIONAL WEATHER SERVICE LA CROSSE WI
800 AM CDT TUE OCT 21 2014


...SOUTHEAST MINNESOTA...


CITY           SKY/WX    TMP DP  RH WIND       PRES   REMARKS
ROCHESTER      CLEAR     38  36  92 E6        30.18R WCI  33
ROCHESTER/MAYO FAIR      38  33  83 CALM      30.18R
WINONA         CLEAR     37  36  93 CALM      30.21R
AUSTIN         CLEAR     36  36 100 CALM      30.16R
ALBERT LEA     CLEAR     36  36 100 CALM      30.16R
DODGE CENTER   PTCLDY    36  36 100 CALM      30.17R
PRESTON        CLEAR     37  35  94 NE5       30.18R WCI  33
OWATONNA       CLEAR     37  36  93 E5        30.17R WCI  34
FARIBAULT      CLEAR     30  30 100 CALM      30.17S FOG
$$

...ELSEWHERE IN MINNESOTA...


CITY           SKY/WX    TMP DP  RH WIND       PRES   REMARKS
MINNEAPOLIS    CLEAR     41  37  86 VRB5      30.19R
INTNL FALLS    PTCLDY    32  30  92 SE6       30.17S WCI  26
DULUTH         CLOUDY    42  35  76 SE13      30.20R
RED WING       CLEAR     34  32  93 CALM      30.19R
REDWOOD FALLS  CLEAR     39  36  89 E6        30.13S WCI  35
MANKATO        CLEAR     39  34  81 E7        30.16R WCI  34
WORTHINGTON    CLEAR     37  34  87 S3        30.12S
FAIRMONT       PTCLDY    34  28  80 CALM      30.14S
$$

...SOUTHWEST WISCONSIN...


CITY           SKY/WX    TMP DP  RH WIND       PRES   REMARKS
LA CROSSE      CLEAR     38  36  92 CALM      30.21R
PRAIRIE DU CHI FOG       38  37  95 CALM      30.19R VSB<1/4
BOSCOBEL       FOG       33  32  96 CALM      30.20R VSB 1/4
LONE ROCK      CLEAR     37  33  85 SW3       30.20R
PLATTEVILLE    CLEAR     37  36  94 CALM      30.18R
FORT MC COY    CLEAR     28  28  99 CALM      30.22R
CAMP DOUGLAS   PTCLDY    32  32 100 CALM      30.20R
VIROQUA        FAIR      38  38 100 NE6       30.19R WCI  34
WIS DELLS      CLEAR     39  35  84 CALM      30.19R
$$

...ELSEWHERE IN WISCONSIN...


CITY           SKY/WX    TMP DP  RH WIND       PRES   REMARKS
MILWAUKEE      MOCLDY    46  38  73 N12       30.14R
MADISON        PTCLDY    40  36  86 N7        30.18R
GREEN BAY      CLOUDY    43  37  79 N12       30.18R
EAU CLAIRE     CLEAR     36  34  92 NE5       30.20R WCI  32
BLACK RVR FLS  FAIR      27  27 100 CALM      30.21R
MEDFORD        CLOUDY    39  33  80 NE8       30.19R WCI  33
WAUSAU         CLOUDY    41  34  76 NE6       30.19R
WIS RAPIDS     CLOUDY    42  35  76 NE9       30.21R
MARSHFIELD     MOCLDY    40  34  79 NE9       30.19R WCI  34
RICE LAKE      MOCLDY    40  34  76 NE7       30.21S
$$

...NORTHEAST IOWA...


CITY           SKY/WX    TMP DP  RH WIND       PRES   REMARKS
DECORAH        CLEAR     37  37 100 E5        30.17R WCI  34
MASON CITY     CLEAR     32  31  96 NE3       30.17R FOG
CHARLES CITY   CLEAR     37  36  93 NE5       30.17R WCI  34
OELWEIN        CLEAR     36  36 100 NE6       30.17R WCI  31
$$

...ELSEWHERE IN IOWA...


CITY           SKY/WX    TMP DP  RH WIND       PRES   REMARKS
DES MOINES     CLEAR     46  40  79 E3        30.13R
IOWA CITY      CLEAR     39  39 100 CALM      30.17R
FORT DODGE     CLEAR     36  32  87 E3        30.14S
$$

...NORTHERN ILLINOIS...


CITY           SKY/WX    TMP DP  RH WIND       PRES   REMARKS
CHICAGO-OHARE  MOCLDY    46  39  76 N14       30.12R
CHICAGO-MIDWAY MOCLDY    49  41  74 N9        30.12R
MOLINE         CLEAR     38  37  97 CALM      30.16R FOG
ROCKFORD       MOCLDY    47  38  71 N10       30.17R
PEORIA         CLEAR     46  39  76 N5        30.14R
$$

NOTE: "FAIR" INDICATES FEW OR NO CLOUDS BELOW 12,000 FEET WITH NO
SIGNIFICANT WEATHER AND/OR OBSTRUCTIONS TO VISIBILITY. WIND
SPEEDS ARE IN MILES-PER-HOUR.



USA.gov is the U.S. government's official web portal to all federal, state and local government web resources and services.